Regional Weather Roundup
Issued by NWS

Home | Current Version | Previous Version | Text Only | Print | Product List | Glossary On
Versions: 1 2 3 4 5 6 7 8 9 10 11 12 13 14 15 16 17 18 19 20 21 22 23 24 25 26 27 28 29 30 31 32 33 34 35 36 37 38 39 40 41 42 43 44 45 46 47 48 49 50
000
ASUS44 KFWD 040503
RWRTX
NORTH TEXAS HOURLY WEATHER ROUNDUP
NATIONAL WEATHER SERVICE FORT WORTH TX
1100 PM CST TUE MAR 03 2015

NOTE: "FAIR" INDICATES FEW OR NO CLOUDS BELOW 12,000 FEET WITH NO
SIGNIFICANT WEATHER AND/OR OBSTRUCTIONS TO VISIBILITY.

TXZ118-119-040600-
DALLAS/FORT WORTH METROPLEX

CITY           SKY/WX    TMP DP  RH WIND       PRES   REMARKS
DFW AIRPORT    CLOUDY    52  51  97 CALM      29.87S FOG
DALLAS LOVE    CLOUDY    52  51  97 CALM      29.87F
FTW MEACHAM    CLOUDY    53  51  93 CALM      29.86F FOG
DAL-EXECUTIVE  CLOUDY    52  52 100 CALM      29.87S FOG
FTW-ALLIANCE   CLOUDY    50  50 100 CALM      29.87F FOG
FTW-SPINKS     FOG       51  50  97 CALM      29.88S VSB 1/4
ARLINGTON      FOG       52  50  93 N3        29.87F VSB 1/2
GRAND PRAIRIE  CLOUDY    51  51 100 CALM      29.89R
ADDISON        CLOUDY    53  53 100 CALM      29.89S FOG
MESQUITE       CLOUDY    50  49  97 CALM      29.88F
LANCASTER      CLOUDY    50  48  94 CALM      29.89S FOG
$$

TXZ091>094-102>105-117-120-121-131>134-040600-
NORTH CENTRAL TEXAS

CITY           SKY/WX    TMP DP  RH WIND       PRES   REMARKS
SHRMAN/DENISON FOG       48  48 100 CALM      29.89F VSB 1/4
GAINESVILLE    FOG       47  47  99 CALM      29.90F VSB 1/2
BOWIE          FOG       49  49 100 CALM      29.86F VSB 1/4
BRIDGEPORT     FOG       51  51 100 CALM      29.89S VSB 1
DECATUR        FOG       49  49 100 E3        29.87F VSB 1/4
DENTON         FOG       49  49 100 NE5       29.87F VSB 1/2
MCKINNEY       FOG       50  49  96 CALM      29.87F VSB 1/2
GREENVILLE     CLOUDY    48  46  93 CALM      29.88F FOG
TERRELL        CLOUDY    52  51  97 CALM      29.88F FOG
WAXAHACHIE     CLOUDY    54  54 100 NE3       29.88S FOG
CLEBURNE       CLOUDY    50  50 100 NW3       29.88R FOG
GRANBURY       CLOUDY    52  50  94 CALM      29.89R FOG
$$

TXZ083>090-098>101-113>116-127>130-139>142-154-155-040600-
WESTERN NORTH TEXAS

CITY           SKY/WX    TMP DP  RH WIND       PRES   REMARKS
WICHITA FALLS  MOCLDY    48  46  93 E7        29.85F FOG
WF-KICKAPOO    MOCLDY    52  50  92 SE7       29.87S FOG
VERNON         MOCLDY    49  44  80 SE7       29.87R
ABILENE        CLOUDY    53  48  83 CALM      29.87R
ABILENE-DYESS  CLOUDY    50  47  90 E2        29.85S
GRAHAM         FOG       51  51 100 CALM      29.86R VSB 1
MINERAL WELLS  FOG       51  51 100 CALM      29.86S VSB 1/4
STEPHENVILLE   CLOUDY    53  51  94 CALM      29.88R VSB<1/4
COMANCHE       FOG       51  51 100 S3        29.87S VSB 1/4
BROWNWOOD      CLOUDY    57  55  94 S8        29.86S
COLEMAN        CLOUDY    53  53  99 CALM      29.87S
BRADY          CLOUDY    55  55 100 S8        29.86R
$$

TXZ143>147-156>162-174-175-040600-
CENTRAL TEXAS

CITY           SKY/WX    TMP DP  RH WIND       PRES   REMARKS
WACO           FOG       52  51  97 SE7       29.85S VSB 1
WACO-MCGREGOR  PTCLDY    55  52  88 S8        29.86F
HILLSBORO      CLOUDY    58  57  96 SE5       29.86S FOG
CORSICANA      FOG       52  50  93 E5        29.89R VSB 1/4
MEXIA          FOG       56  56  99 S5        29.87S VSB 1/4
HEARNE         CLOUDY    58  57  97 E5        29.89F FOG
CAMERON        FOG       57  57  99 CALM      29.87F VSB 1/4
TEMPLE         CLOUDY    55  52  88 S9        29.85S VSB 1/4
KILLEEN        CLOUDY    60  60  97 S10       29.84S
KILLEEN-SKYLRK CLOUDY    61  57  88 S13       29.83R
FORT HOOD      CLOUDY    61  60  96 S10       29.84F
GATESVILLE     CLOUDY    61  61 100 S6        29.88R
HAMILTON       CLOUDY    60  60 100 S18       29.86R
LAMPASAS       CLOUDY    62  59  91 SW6       29.86R
$$

TXZ095>097-106>112-122>126-135>138-148>153-164>167-040600-
EAST TEXAS

CITY           SKY/WX    TMP DP  RH WIND       PRES   REMARKS
PARIS          CLOUDY    46  45  93 CALM      29.89F
SULPHUR SPRNGS FOG       47  47 100 CALM      29.90S VSB 1/2
MOUNT PLEASANT CLOUDY    50  50  99 CALM      29.90S
GILMER         CLOUDY    62  61  97 CALM      29.88S FOG
MINEOLA        CLOUDY    54  54 100 CALM      29.90S FOG
TYLER          CLOUDY    60  58  92 CALM      29.89R FOG
LONGVIEW       CLOUDY    67  62  84 S12       29.87F
MARSHALL       CLOUDY    70  65  85 S12       29.91R
ATHENS         FOG       54  54 100 CALM      29.89F VSB 1/4
PALESTINE      CLOUDY    59  59 100 CALM      29.91S FOG
JACKSONVILLE   MOCLDY    66  64  94 S5        29.92R
HENDERSON      CLOUDY    67  64  91 S8        29.91S
NACOGDOCHES    CLOUDY    66  63  88 S8        29.93R
LUFKIN         CLOUDY    69  64  84 S5        29.92R
$$

SUPPLEMENTAL OBSERVATIONS (CENTRAL)

CITY           SKY/WX    TMP DP  RH WIND       PRES   REMARKS
$$

SUPPLEMENTAL OBSERVATIONS (WEST)

CITY           SKY/WX    TMP DP  RH WIND       PRES   REMARKS
$$

SUPPLEMENTAL OBSERVATIONS (EAST)

CITY           SKY/WX    TMP DP  RH WIND       PRES   REMARKS
$$

SUPPLEMENTAL OBSERVATIONS ARE A COLLECTION OF AUTOMATED INSTRUMENTS
THAT ARE MAINTAINED BY A VARIETY OF FEDERAL AND STATE AGENCIES.
CERTAIN ELEMENTS...SUCH AS HUMIDITY VALUES AND SUSTAINED WIND
SPEEDS...MAY BE APPROXIMATED.




USA.gov is the U.S. government's official web portal to all federal, state and local government web resources and services.